DW8155 Weather Reports


Display with metric or nautical units.
time (UTC)temp
F
wind
direction
speed
MPH
gust
MPH
rain 1hr
in
rain 24hr
in
rain mn
in
humidity
%
barometer
mb
20260510043006 55 190 4.0 7.0 0.11 0.65 0.06 96 1008.4
20260510041508 55 157 1.0 5.0 0.13 0.63 0.04 96 1008.6
20260510040059 55 202 1.0 3.0 0.12 0.59 0.00 96 1008.6
20260510034558 55 223 2.0 4.0 0.10 0.57 0.56 96 1008.6
20260510033100 56 252 5.0 20.0 0.07 0.55 0.54 96 1008.9
20260510031626 55 202 9.0 13.0 0.03 0.51 0.50 96 1007.6
20260510030055 55 184 6.0 11.0 0.00 0.48 0.47 96 1007.6
20260510024554 55 167 5.0 8.0 0.00 0.49 0.47 95 1007.7
20260510023059 55 188 6.0 8.0 0.01 0.49 0.47 95 1007.9
20260510021554 55 207 4.0 9.0 0.07 0.49 0.47 95 1007.9
20260510020054 55 202 7.0 10.0 0.12 0.49 0.47 94 1008.1
20260510014552 55 210 6.0 8.0 0.31 0.49 0.47 94 1007.7
20260510013053 55 230 0.0 3.0 0.31 0.48 0.46 94 1008.0
20260510011608 55 287 2.0 7.0 0.25 0.42 0.40 93 1008.1
20260510010104 56 304 6.0 13.0 0.20 0.37 0.35 91 1007.9
20260510004551 59 336 7.0 18.0 0.01 0.18 0.16 80 1007.1
20260510003050 64 203 5.0 10.0 0.00 0.17 0.15 66 1005.9
20260510001549 64 206 7.0 16.0 0.00 0.17 0.15 66 1005.6
20260510000050 65 198 12.0 22.0 0.00 0.17 0.15 64 1005.4
20260509234549 65 204 10.0 17.0 0.00 0.17 0.15 64 1005.2
20260509233048 65 229 8.0 17.0 0.00 0.17 0.15 64 1005.2
20260509231557 66 204 9.0 17.0 0.00 0.17 0.15 64 1005.0
20260509230047 67 222 11.0 21.0 0.00 0.17 0.15 62 1004.9
20260509224545 67 202 10.0 22.0 0.00 0.17 0.15 63 1005.0
20260509223047 67 190 11.0 22.0 0.00 0.17 0.15 62 1005.2
20260509221544 67 205 14.0 22.0 0.00 0.17 0.15 63 1005.2
20260509220046 67 206 11.0 21.0 0.00 0.17 0.15 63 1005.0
20260509214542 67 215 15.0 23.0 0.00 0.17 0.15 64 1005.1
20260509213057 67 208 12.0 20.0 0.00 0.17 0.15 62 1005.5
20260509211606 67 190 14.0 20.0 0.00 0.17 0.15 65 1005.5
20260509210040 67 213 12.0 22.0 0.00 0.17 0.15 65 1005.5
20260509204551 67 227 9.0 19.0 0.00 0.19 0.15 65 1005.5
20260509203042 67 217 10.0 17.0 0.00 0.19 0.15 66 1005.9
20260509201533 66 220 15.0 23.0 0.00 0.19 0.15 68 1006.0
20260509200031 66 204 11.0 21.0 0.00 0.19 0.15 69 1006.4
20260509194529 65 208 12.0 20.0 0.00 0.19 0.15 68 1006.7
20260509193026 66 212 10.0 22.0 0.00 0.19 0.15 70 1006.7
20260509191523 65 197 13.0 22.0 0.00 0.19 0.15 71 1007.0
20260509190023 65 242 11.0 22.0 0.00 0.19 0.15 74 1007.1
20260509184518 63 212 14.0 20.0 0.00 0.21 0.15 74 1007.2
20260509183022 62 214 14.0 20.0 0.00 0.21 0.15 77 1007.3
20260509181515 63 209 12.0 23.0 0.00 0.21 0.15 76 1007.3
20260509180013 62 205 12.0 22.0 0.00 0.21 0.15 81 1007.1
20260509174512 61 176 15.0 21.0 0.00 0.21 0.15 80 1007.4
20260509173012 62 207 6.0 17.0 0.00 0.21 0.15 83 1007.5
20260509171509 61 244 9.0 18.0 0.00 0.21 0.15 83 1007.5
20260509170006 60 230 5.0 13.0 0.00 0.21 0.15 87 1007.6
20260509164504 59 212 5.0 11.0 0.00 0.21 0.15 87 1007.7
20260509163003 58 186 5.0 12.0 0.00 0.21 0.15 89 1007.7
20260509161503 58 236 5.0 17.0 0.00 0.21 0.15 88 1007.7
20260509160002 58 240 5.0 15.0 0.00 0.21 0.15 90 1007.5
20260509154559 58 229 6.0 11.0 0.00 0.21 0.15 92 1007.4
20260509153055 56 236 6.0 14.0 0.00 0.21 0.15 93 1007.4
20260509151553 55 226 8.0 12.0 0.00 0.21 0.15 94 1007.3
20260509150052 55 209 9.0 16.0 0.00 0.21 0.15 95 1007.4
20260509144550 55 187 10.0 17.0 0.00 0.21 0.15 96 1007.3
20260509143051 54 199 7.0 17.0 0.01 0.21 0.15 96 1007.3
20260509141545 53 190 10.0 18.0 0.02 0.21 0.15 97 1007.3
20260509140046 52 206 6.0 11.0 0.02 0.21 0.15 97 1007.3
20260509134550 52 197 6.0 11.0 0.02 0.21 0.15 96 1007.6
20260509133053 52 212 5.0 11.0 0.01 0.20 0.14 96 1007.6
20260509131542 52 225 6.0 11.0 0.00 0.19 0.13 96 1007.7
20260509130041 52 223 6.0 13.0 0.00 0.19 0.13 96 1007.7
20260509124539 52 205 7.0 13.0 0.00 0.19 0.13 96 1007.6
20260509123038 52 198 6.0 13.0 0.01 0.19 0.13 96 1007.7
20260509121540 52 203 6.0 12.0 0.01 0.19 0.13 96 1007.8
20260509120135 51 193 8.0 14.0 0.01 0.19 0.13 96 1007.8
20260509114535 51 210 6.0 10.0 0.01 0.19 0.13 97 1007.9
20260509113032 51 203 6.0 9.0 0.00 0.18 0.12 96 1007.7
20260509111530 50 197 5.0 8.0 0.00 0.18 0.12 97 1007.6
20260509110029 50 212 6.0 8.0 0.00 0.18 0.12 97 1007.5
20260509104531 50 188 5.0 7.0 0.00 0.18 0.12 97 1007.5
20260509103026 50 190 6.0 8.0 0.01 0.18 0.12 97 1007.6
20260509101525 50 195 6.0 8.0 0.02 0.18 0.12 97 1007.5
20260509100024 50 199 6.0 9.0 0.03 0.18 0.12 97 1007.6
20260509094521 50 196 3.0 7.0 0.04 0.18 0.12 97 1007.7
20260509093020 50 169 3.0 6.0 0.04 0.17 0.11 97 1007.9
20260509091526 50 184 3.0 6.0 0.04 0.16 0.10 97 1008.1
20260509090015 50 163 3.0 7.0 0.03 0.15 0.09 97 1008.2
20260509084519 49 180 4.0 8.0 0.03 0.14 0.08 97 1008.3
20260509083011 49 194 4.0 8.0 0.02 0.13 0.07 97 1008.5
20260509081510 49 179 4.0 10.0 0.02 0.12 0.06 97 1008.6
20260509080016 49 167 2.0 8.0 0.01 0.11 0.05 97 1008.7
20260509074507 49 143 3.0 7.0 0.01 0.11 0.05 97 1008.7
20260509073013 49 152 1.0 4.0 0.02 0.11 0.05 97 1008.6
20260509071504 49 186 4.0 7.0 0.02 0.10 0.04 97 1008.8
20260509070003 49 161 1.0 4.0 0.02 0.10 0.04 96 1008.7
20260509064502 49 127 0.0 3.0 0.02 0.10 0.04 96 1008.8
20260509063100 49 127 0.0 3.0 0.01 0.09 0.03 96 1009.1
20260509063002 49 127 0.0 3.0 0.01 0.09 0.03 96 1009.0
20260509061600 49 88 0.0 0.0 0.00 0.08 0.02 96 1009.1
20260509060058 49 88 0.0 0.0 0.00 0.08 0.02 96 1009.2
20260509054604 49 87 1.0 3.0 0.01 0.08 0.02 96 1009.2
20260509053054 49 84 0.0 2.0 0.01 0.08 0.02 96 1009.6
20260509051558 49 84 1.0 2.0 0.02 0.08 0.02 96 1009.7
20260509050050 49 84 1.0 3.0 0.02 0.08 0.02 95 1009.8
20260509044550 49 84 0.0 2.0 0.01 0.07 0.01 95 1010.0